EW3230 Weather Reports


time (UTC)temp
F
wind
direction
speed
knots
gust
knots
rain 1hr
in
rain 24hr
in
rain mn
in
humidity
%
barometer
mb
20260510154632 65 172 0.9 2.6 0.00 0.05 0.00 77 1013.9
20260510153639 65 104 0.9 2.6 0.00 0.05 0.00 77 1013.8
20260510153633 65 133 0.9 3.5 0.00 0.05 0.00 78 1013.9
20260510152134 64 184 0.0 2.6 0.00 0.05 0.00 79 1014.0
20260510150634 64 239 0.0 1.7 0.00 0.05 0.00 80 1014.0
20260510145632 64 249 0.9 3.5 0.00 0.05 0.00 80 1013.9
20260510144632 64 208 0.0 1.7 0.00 0.05 0.00 80 1013.8
20260510144146 63 239 0.0 3.5 0.00 0.05 0.00 80 1014.1
20260510142633 62 277 0.0 1.7 0.00 0.05 0.00 80 1014.0
20260510141635 62 265 0.0 2.6 0.00 0.05 0.00 80 1013.9
20260510141146 61 233 0.0 1.7 0.00 0.05 0.00 79 1014.0
20260510135632 61 125 0.0 2.6 0.00 0.05 0.00 80 1014.1
20260510134634 61 136 0.0 1.7 0.00 0.05 0.00 80 1013.4
20260510133633 61 108 0.9 4.3 0.00 0.05 0.00 79 1013.3
20260510132632 60 138 0.0 1.7 0.00 0.05 0.00 78 1013.0
20260510131631 60 153 0.0 1.7 0.00 0.05 0.00 78 1013.2
20260510130634 60 206 0.0 0.9 0.00 0.05 0.00 76 1013.1
20260510125632 59 143 0.0 2.6 0.00 0.05 0.00 75 1013.1
20260510124633 58 239 0.0 1.7 0.00 0.05 0.00 74 1013.2
20260510123633 58 162 0.0 2.6 0.00 0.05 0.00 72 1013.3
20260510122631 58 178 0.0 1.7 0.00 0.05 0.00 68 1013.3
20260510121633 57 205 0.0 1.7 0.00 0.05 0.00 66 1013.4
20260510120632 57 145 0.0 0.9 0.00 0.05 0.00 65 1013.5
20260510115633 57 245 0.0 0.9 0.00 0.05 0.00 64 1013.6
20260510114631 56 239 0.0 0.9 0.00 0.05 0.00 64 1013.5
20260510113632 56 239 0.0 0.9 0.00 0.05 0.00 64 1013.6
20260510112633 55 235 0.0 0.9 0.00 0.05 0.00 64 1013.5
20260510111632 55 186 0.0 0.0 0.00 0.05 0.00 64 1013.4
20260510110632 55 185 0.0 0.9 0.00 0.05 0.00 64 1013.4
20260510105633 55 186 0.0 0.9 0.00 0.05 0.00 65 1013.6
20260510105136 54 212 0.0 0.0 0.00 0.05 0.00 65 1013.5
20260510103630 54 212 0.0 0.0 0.00 0.05 0.00 65 1013.4
20260510102632 54 212 0.0 0.0 0.00 0.05 0.00 65 1013.4
20260510101629 54 212 0.0 0.9 0.00 0.05 0.00 65 1013.3
20260510100631 54 214 0.0 0.9 0.00 0.05 0.00 65 1013.2
20260510095632 53 214 0.0 0.0 0.00 0.05 0.00 65 1013.0
20260510094630 53 214 0.0 0.0 0.00 0.05 0.00 66 1013.0
20260510093630 53 214 0.0 0.0 0.00 0.05 0.00 66 1012.9
20260510092629 53 214 0.0 0.0 0.00 0.05 0.00 66 1012.8
20260510091628 53 214 0.0 0.0 0.00 0.05 0.00 66 1012.8
20260510091132 53 214 0.0 0.0 0.00 0.05 0.00 66 1012.7
20260510085627 53 214 0.0 0.0 0.00 0.05 0.00 66 1012.7
20260510084627 53 214 0.0 0.0 0.00 0.05 0.00 66 1012.6
20260510083626 53 214 0.0 0.9 0.00 0.05 0.00 66 1012.7
20260510083128 53 214 0.0 0.0 0.00 0.05 0.00 66 1012.6
20260510081627 53 214 0.0 0.9 0.00 0.05 0.00 66 1012.7
20260510080632 53 214 0.0 0.9 0.00 0.05 0.00 67 1012.6
20260510080626 53 214 0.0 0.9 0.00 0.05 0.00 66 1012.7
20260510074626 53 229 0.0 0.9 0.00 0.05 0.00 67 1012.5
20260510073624 54 201 0.0 1.7 0.00 0.05 0.00 67 1012.5
20260510072623 54 229 0.0 0.9 0.00 0.05 0.00 66 1012.5
20260510071622 54 197 0.0 0.9 0.00 0.05 0.00 66 1012.2
20260510070622 54 197 0.0 0.9 0.00 0.05 0.00 67 1012.2
20260510070125 54 198 0.0 0.9 0.00 0.05 0.00 67 1012.0
20260510064622 54 148 0.0 0.9 0.00 0.05 0.00 67 1012.2
20260510063624 54 170 0.0 0.9 0.00 0.05 0.00 67 1012.0
20260510062622 54 203 0.0 1.7 0.00 0.05 0.00 67 1012.1
20260510061619 54 200 0.0 0.9 0.00 0.05 0.00 67 1012.1
20260510060620 54 196 0.0 2.6 0.00 0.05 0.00 68 1012.2
20260510055620 54 232 0.0 1.7 0.00 0.05 0.00 68 1012.2
20260510054618 54 238 0.0 1.7 0.00 0.05 0.00 67 1012.2
20260510053619 54 221 0.0 1.7 0.00 0.05 0.00 67 1012.2
20260510052620 54 199 0.9 2.6 0.00 0.05 0.00 67 1012.2
20260510051619 55 197 0.0 2.6 0.00 0.05 0.00 67 1012.1
20260510051128 55 153 0.9 2.6 0.00 0.05 0.00 68 1012.0
20260510045617 55 200 0.0 2.6 0.00 0.05 0.00 67 1012.0
20260510044614 55 135 0.9 3.5 0.00 0.05 0.00 67 1012.1
20260510043614 55 173 0.9 3.5 0.00 0.05 0.00 67 1012.2
20260510042615 54 167 0.0 2.6 0.00 0.05 0.00 67 1012.3
20260510041614 54 179 0.0 4.3 0.00 0.05 0.00 67 1012.3
20260510040616 54 137 0.9 2.6 0.01 0.05 0.00 67 1012.4
20260510035614 53 199 0.0 2.6 0.01 0.05 0.15 68 1012.4
20260510035125 53 212 0.0 1.7 0.02 0.05 0.15 68 1012.3
20260510033613 52 212 0.0 2.6 0.02 0.05 0.15 69 1012.0
20260510032612 52 125 0.0 1.7 0.02 0.05 0.15 70 1012.1
20260510031612 52 107 0.0 0.0 0.02 0.05 0.15 70 1012.2
20260510030613 52 107 0.0 0.9 0.01 0.04 0.14 71 1012.3
20260510025611 52 122 0.0 3.5 0.01 0.04 0.14 71 1012.6
20260510024610 52 116 0.0 0.9 0.01 0.03 0.13 71 1012.6
20260510023610 52 123 0.0 0.9 0.01 0.03 0.13 70 1012.8
20260510022611 52 134 0.0 3.5 0.01 0.03 0.13 70 1012.9
20260510021608 52 119 0.0 1.7 0.01 0.03 0.13 70 1013.2
20260510020607 52 142 0.0 2.6 0.01 0.03 0.13 70 1013.4
20260510020109 52 118 0.0 1.7 0.02 0.03 0.13 70 1013.4
20260510015106 52 135 0.0 0.9 0.01 0.02 0.12 70 1013.6
20260510013605 52 194 0.0 0.9 0.02 0.02 0.12 70 1013.9
20260510012607 52 149 0.0 0.9 0.02 0.02 0.12 71 1013.8
20260510011605 52 206 0.0 0.9 0.02 0.02 0.12 71 1014.0
20260510010606 52 135 0.0 0.9 0.02 0.02 0.12 71 1014.1
20260510005604 52 193 0.0 1.7 0.01 0.01 0.11 71 1014.3
20260510004603 53 166 0.0 2.6 0.01 0.01 0.11 71 1014.3
20260510003604 53 197 0.0 1.7 0.00 0.00 0.10 71 1014.3
20260510002602 53 198 0.0 0.0 0.00 0.00 0.10 71 1014.1